Welcome to the New NWS' Forecast!
Most changes are behind the scenes, but click here for differences you might notice.

Regional Weather Roundup (RWR)

Issued by Gray - Portland, ME (GYX)

                            
000
ASUS41 KGYX 091010
RWRGYX
WEATHER ROUNDUP FOR MAINE AND NEW HAMPSHIRE
NATIONAL WEATHER SERVICE GRAY ME
500 AM EST SUN DEC 09 2018

MEZ002-005-006-010-012-015-018-020-021-024-026-027-029-091100-
MAINE
  
CITY           SKY/WX    TMP DP  RH WIND       PRES   REMARKS
PORTLAND       FAIR      14   7  73 W6        30.41F                  
SANFORD        FAIR      14   6  70 W9        30.42F                  
BAR HARBOR     FAIR       7   1  76 CALM      30.40R                  
WISCASSET      FAIR       5   2  87 CALM      30.42F                  
ROCKLAND       FAIR      12   3  67 CALM      30.40S                  
FRYEBURG       FAIR       0  -2  91 W3        30.37S                  
LEWISTONAUBURN FAIR       4   1  88 CALM      30.39S                  
AUGUSTA        FAIR      12   4  70 W5        30.37F                  
WATERVILLE     FAIR       4   1  88 MISG      30.34F                  
BANGOR         FAIR       6   0  76 CALM      30.37S                  
GREENVILLE       N/A      6   0  76 NW7       30.21F                  
MILLINOCKET    FAIR       7  -1  70 W9        30.32F                  
HOULTON        FAIR      -4  -8  83 W3        30.29F                  
PRESQUE ISLE   FAIR     -15 -20  78 SW3       30.29F                  
FRENCHVILLE    FAIR      -3  -9  75 W8        30.22F                  
CARIBOU        FAIR      -7 -13  75 CALM      30.26F                  
$$

NHZ002-005-008-009-011-012-014-091100-
NEW HAMPSHIRE
  
CITY           SKY/WX    TMP DP  RH WIND       PRES   REMARKS
PORTSMOUTH     CLEAR     17   9  69 SW7       30.42F                  
ROCHESTER      FAIR      16   7  67 VRB3      30.40F                  
NASHUA         FAIR      10   8  92 CALM      30.44F                  
MANCHESTER     FAIR      14   8  77 CALM      30.42F                  
CONCORD        CLOUDY     8   4  83 CALM      30.43S                  
LACONIA        FAIR      15   9  76 SW8       30.39F                  
PLYMOUTH       FAIR       5   2  89 CALM      30.39S                  
BERLIN         MOCLDY     1  -3  83 CALM      30.31S                  
WHITEFIELD     FLURRIES   2  -2  83 CALM      30.34S                  
JAFFREY        CLOUDY    15  12  88 SW3       30.37F                  
KEENE          CLOUDY    10   7  87 CALM      30.42F                  
LEBANON        CLOUDY    11   5  77 S3        30.40F                  
MT WASHINGTON  BLWGSNOW  -2  -2 100 NW53G64     N/A  VSB 1/16WCI -35  
$$

VTZ005-007-008-091100-
VERMONT
  
CITY           SKY/WX    TMP DP  RH WIND       PRES   REMARKS
ST JOHNSBURY     N/A      7   4  87 MISG      30.36F                  
MONTPELIER     CLOUDY     5   4  95 S3        30.36F                  
BURLINGTON     CLOUDY    13  10  88 CALM      30.38F                  
$$

MAZ007-012-024-CTZ003-RIZ002-NYZ038-NYZ072-091100-
SOUTHERN NEW ENGLAND AND NY
  
CITY           SKY/WX    TMP DP  RH WIND       PRES   REMARKS
BOSTON         FAIR      26  14  60 W7        30.45F                  
WORCESTER      FAIR      16  13  88 W9        30.37F                  
NANTUCKET      FAIR      27  15  61 NW8       30.45S                  
PROVIDENCE     FAIR      20  14  77 W5        30.46F                  
HARTFORD       FAIR      19  14  81 NW5       30.46F                  
ALBANY         CLOUDY    22  16  78 CALM      30.44F                  
NEW YORK CITY  FAIR      30  16  56 NW5       30.50S                  
$$

ANZ081-ANZ082-ANZ150-NHZ014-MEZ023>029-091100-
COASTAL MARINE OBSERVATIONS
  
STATION/POSITION TIME  TEMP    WIND        PRES    WAVE
                       AIR SEA DIR/SP/G            HT/PER
                 (UTC) (F)     (DEG/KT/KT) (MB)    (FT/S)
MOUNT DESERT ROC 1000   21     290/ 14/ 15 1028.8S
MATINICUS ROCK   0900   23     300/ 22/ 25 1028.6F
ISLE OF SHOALS   0900   25     270/ 19/ 20 1030.0F
JEFFREYS LEDGE   0938      46                N/A     4/ 4
CASHES LEDGE BUO 0950   28 46              1029.4S   4/ 5
$$

.............KEY..............
   WCI - WIND CHILL
   TC  - TEMPERATURE IN CELSIUS
   VSB - VISIBILITY IN MILES
   HX  - HEAT INDEX
   FAIR- INDICATES FEW OR NO CLOUDS BELOW 12,000 FT, WITH NO 
         SIGNIFICANT WEATHER AND/OR OBSTRUCTIONS TO VISIBILITY.